Location: Gourette
(42.9667°N, 0.3333°W)
Time: 03:09:27
(UTC+00:00)

Daily predictions for brighter satellites

Satellite Brightness Start Highest point End
(mag) Time Altitude Azimuth Time Altitude Azimuth Time Altitude Azimuth
Cosmos 1758 4.0 00:00:33 10° N 00:03:41 53° N 00:03:41 53° N
SL-08 ROCKET BODY 4.3 00:00:14 10° NNW 00:06:05 70° W 00:06:46 64° SW
Cosmos 2221 Rocket 3.8 00:06:47 66° NE 00:06:47 66° NE 00:10:40 10° NNE
Cosmos 1674 Rocket 4.2 00:06:55 46° ENE 00:06:55 46° ENE 00:10:32 10° NNE
Cosmos 1244 Rocket 4.4 00:00:10 10° N 00:06:31 83° W 00:07:36 63° S
Cosmos 1461 3.4 00:02:46 10° NNW 00:06:31 58° NNE 00:06:31 58° NNE
Nadezhda 2 Rocket 4.3 00:02:07 10° N 00:08:17 77° W 00:09:13 64° SSW
Cosmos 1674 3.7 00:10:51 44° N 00:10:51 44° N 00:13:30 10° N
ATLAS CENTAUR R/B 2.4 00:10:22 10° NW 00:13:59 42° WNW 00:13:59 42° WNW
SL-16 R/B 4.4 00:16:08 11° ESE 00:17:01 12° E 00:18:59 10° ENE
Cosmos 2322 Rocket 4.5 00:16:20 10° W 00:20:02 18° NW 00:23:44 10° N
Cosmos 1980 4.2 00:20:38 44° ESE 00:20:53 44° ESE 00:26:13 10° NE
Cosmos 2333 Rocket 3.1 00:19:42 32° W 00:21:31 41° WNW 00:26:52 10° NNE
Cosmos 1378 Rocket 3.8 00:22:19 66° NE 00:22:19 66° NE 00:26:18 10° NNE
Cosmos 2322 4.2 00:20:48 45° WSW 00:22:07 55° WNW 00:27:45 10° NNE
ATLAS 5 CENTAUR R/B 3.1 00:10:48 10° NW 00:23:11 70° NE 00:24:40 44° ESE
CZ-4C R/B 3.0 00:16:30 10° NW 00:23:56 89° ENE 00:27:53 36° SE
Cosmos 1844 Rocket 4.3 00:22:55 10° NW 00:26:32 21° W 00:26:32 21° W
USA 215 4.3 00:22:11 10° NE 00:28:17 44° NNW 00:34:24 10° W
NOSS 0 Rocket 3.9 00:29:23 60° SSE 00:30:20 70° ESE 00:36:34 10° NNE
PSLV R/B 4.0 00:30:49 10° N 00:35:00 55° WNW 00:35:00 55° WNW
Cosmos 2151 Rocket 4.1 00:37:09 10° NNW 00:40:53 49° WNW 00:40:53 49° WNW
ADEOS Rocket 3.6 00:42:18 35° WSW 00:42:35 35° W 00:47:56 10° NNW
Cosmos 1745 Rocket 3.9 00:37:02 10° N 00:43:17 86° W 00:44:35 59° S
USA 308 3.6 00:44:47 46° ENE 00:44:47 46° ENE 00:47:51 10° NE
Cosmos 839 Rocket 4.4 00:37:53 10° NNW 00:44:17 70° NE 00:49:12 23° SE
Cosmos 2219 Rocket 3.3 00:42:56 28° W 00:44:50 35° NW 00:49:57 10° N
Okean 2 Rocket 3.9 00:41:28 10° NNW 00:45:13 41° WNW 00:45:13 41° WNW
Meteor 2-12 Rocket 4.4 00:44:46 10° N 00:50:53 79° E 00:52:26 52° SSE
Meteor 1-16 Rocket 4.2 00:45:10 10° NNW 00:51:06 73° W 00:52:02 61° SSW
GP-B 3.3 00:53:32 10° N 00:57:55 59° E 00:58:07 58° ESE
Lacrosse 5 2.8 00:58:31 34° ESE 00:58:31 34° ESE 01:02:45 10° ENE
CZ-2D R/B 3.2 00:56:15 10° NNE 01:01:03 33° E 01:02:28 28° SE
SL-14 R/B 3.7 01:02:27 55° NNW 01:02:27 55° NNW 01:05:43 10° N
Cosmos 1300 3.1 00:58:13 10° N 01:01:27 60° NNE 01:01:27 60° NNE
USA 267 3.4 01:02:14 48° SSW 01:02:59 50° SW 01:09:20 10° WNW
ASTEX 1 4.5 01:00:20 10° NNW 01:04:38 31° WNW 01:05:06 31° W
Cosmos 883 Rocket 4.4 01:04:14 53° SSW 01:05:53 86° W 01:12:16 10° N
Cosmos 371 Rocket 3.4 01:06:03 59° W 01:06:30 63° WNW 01:11:20 10° NNE
Cosmos 2150 Rocket 4.1 01:06:08 55° WSW 01:06:54 62° WNW 01:12:01 10° NNE
USA 305 3.0 01:07:08 65° NW 01:07:09 65° NW 01:11:19 10° NE
NOSS 2-2 (C) 4.3 01:04:18 10° NW 01:09:37 79° SW 01:12:46 35° SSE
USA 229 DEB 3.9 01:03:51 10° NW 01:11:17 73° WSW 01:15:06 33° SSE
USA 229 3.9 01:03:57 10° NW 01:11:22 74° WSW 01:15:14 33° SSE
Cosmos 2237 Rocket 2.2 01:11:28 55° SW 01:12:43 77° WNW 01:18:27 10° NNE
COSMOS 2428 4.1 01:12:16 23° W 01:14:35 30° NW 01:19:34 10° N
Cosmos 405 Rocket 4.4 01:18:03 24° WNW 01:18:03 24° WNW 01:20:43 10° NNW
Cosmos 304 Rocket 3.6 01:17:17 69° SW 01:17:48 79° WNW 01:22:38 10° NNE
SL-16 R/B 3.4 01:14:42 16° SE 01:19:25 47° ENE 01:25:20 10° N
Cosmos 1437 Rocket 4.2 01:17:01 10° NNW 01:19:16 27° WNW 01:19:16 27° WNW
Cosmos 1125 Rocket 4.1 01:20:00 39° W 01:21:05 44° WNW 01:26:05 10° N
Lacrosse 5 rocket 2.8 01:21:54 25° ESE 01:21:54 25° ESE 01:24:28 10° ENE
Okean 1 Rocket 3.9 01:20:22 10° NNW 01:24:04 36° W 01:24:04 36° W
SME Rocket 3.0 01:24:34 68° SE 01:25:04 83° ENE 01:29:55 10° NNW
Cosmos 1953 3.6 01:23:39 10° NNW 01:26:26 28° WNW 01:26:26 28° WNW
Resurs 1-4 Rocket 2.3 01:25:08 10° NNE 01:30:22 62° ESE 01:31:56 43° SSE
Cosmos 1943 Rocket 2.9 01:28:24 10° NNW 01:33:57 52° ENE 01:39:28 10° SE
MOZ.5/SAFIR/RUBIN 5/SL-8 3.8 01:33:59 58° SW 01:34:28 62° WSW 01:39:11 10° NNW
Cosmos 2315 Rocket 4.2 01:35:34 41° SW 01:37:37 59° W 01:43:56 10° N
Cosmos 1709 Rocket 4.2 01:31:46 10° NNW 01:37:41 52° W 01:39:17 42° SW
Cosmos 2184 Rocket 4.3 01:38:25 10° N 01:44:38 64° E 01:48:45 22° SSE
Cosmos 2278 Rocket 2.8 01:39:52 10° NW 01:45:01 36° WSW 01:45:23 36° WSW
ADEOS II 2.8 01:41:13 10° NNE 01:46:16 45° E 01:48:40 27° SSE
IDEFIX/ARIANE 42P 3.6 01:42:14 10° NNE 01:47:08 38° E 01:49:52 22° SSE
USA 306 4.1 01:47:33 25° WNW 01:49:19 37° NNW 01:53:13 10° NE
Cosmos 2084 Rocket 3.2 01:49:15 64° W 01:49:33 67° NW 01:53:20 10° NNE
USA 307 4.0 01:51:04 26° WNW 01:52:47 39° NNW 01:56:44 10° NE
Thor Agena Rocket 4.2 01:49:28 10° N 01:54:28 44° WNW 01:56:09 33° WSW
ERBS 3.7 01:54:54 27° NW 01:55:09 27° NW 01:57:51 10° NNE
NPP 3.6 01:52:58 10° NNE 01:58:24 89° ESE 02:00:36 38° SSW
Cosmos 2369 Rocket 3.8 01:54:01 10° N 01:59:04 33° NE 02:04:04 10° ESE
SL-16 R/B 2.1 01:58:00 39° SSW 02:00:12 87° ESE 02:05:55 10° NNE
Cosmos 1455 Rocket 3.6 01:58:34 10° NNW 02:02:46 41° W 02:03:15 40° WSW
CZ-4 R/B 3.8 01:58:42 10° N 02:03:19 65° WNW 02:04:41 43° SW
EO 1 Del DPAF 3.9 02:01:01 10° NNE 02:04:22 41° E 02:05:16 33° SE
Meteor 1-28 Rocket 3.9 02:03:37 25° SE 02:05:29 51° ENE 02:09:08 10° N
COSMOS 2455 3.2 02:04:48 30° S 02:07:41 59° ESE 02:13:36 10° NE
Cosmos 1536 Rocket 3.7 02:08:03 36° S 02:09:47 70° E 02:14:10 10° NNE
CZ-4C R/B 4.1 02:06:15 10° WNW 02:12:04 23° WSW 02:12:59 23° WSW
Cosmos 1975 Rocket 4.3 02:16:47 25° W 02:17:42 27° WNW 02:21:30 10° NNW
Nadezhda 1 Rocket 4.1 02:15:05 24° S 02:19:08 83° E 02:25:27 10° N
Meteor 1-24 Rocket 4.0 02:17:03 31° SW 02:19:22 50° WNW 02:24:41 10° N
UNK 3.7 02:19:09 33° S 02:21:04 64° W 02:25:39 10° NNW
MSX 4.1 02:18:35 10° NNE 02:24:19 64° ESE 02:28:25 20° S
Cosmos 1025 Rocket 4.2 02:23:55 25° W 02:24:53 27° WNW 02:28:35 10° NNW
MOS 1 Rocket 3.0 02:23:22 33° S 02:25:09 66° W 02:29:26 10° NNW
YAOGAN 11 4.2 02:23:45 33° SSW 02:25:35 61° WSW 02:30:03 10° NNW
Cosmos 1455 2.3 02:22:57 10° NNW 02:26:34 53° W 02:27:22 43° SW
Cosmos 1271 Rocket 2.7 02:26:35 10° N 02:30:25 83° E 02:32:45 23° SSE
Lacrosse 5 2.5 02:37:42 20° WSW 02:41:02 48° NW 02:45:59 10° NE
CZ-2D R/B 3.1 02:36:16 10° N 02:41:03 34° WNW 02:43:47 21° WSW
Helios 1B rocket 3.8 02:41:36 10° NNE 02:45:19 34° E 02:49:02 10° SSE
Cosmos 2341 Rocket 4.4 02:41:06 10° N 02:47:29 67° E 02:53:49 10° SSE
BREEZE-M DEB (TANK) 3.2 02:47:13 23° SW 02:50:04 49° SSE 02:52:38 10° ENE
Cosmos 2154 Rocket 4.2 02:44:42 10° NNW 02:50:53 56° W 02:56:00 15° SSW
Cosmos 407 Rocket 4.5 02:47:46 10° N 02:52:58 50° ENE 02:58:03 10° SE
Cosmos 1943 3.5 02:50:42 16° S 02:55:13 65° ESE 03:00:53 10° NNE
Cosmos 1328 4.2 02:52:13 14° S 02:55:28 61° E 02:59:25 10° NNE
Helios 1A 3.4 02:53:26 22° SSW 02:55:50 44° W 02:59:54 10° NNW
Cosmos 2237 Rocket 4.4 02:54:42 10° WNW 02:57:47 15° NW 03:00:53 10° N
Lacrosse 5 rocket 2.2 02:57:25 17° W 02:59:59 40° NW 03:03:53 10° NE
SL-16 R/B 3.4 02:59:47 18° SW 03:03:10 29° W 03:08:31 10° NW
Cosmos 1140 Rocket 3.9 02:58:43 10° NNW 03:03:57 66° ENE 03:09:09 10° SSE
Lacrosse 4 Rocket 4.0 03:05:05 10° SE 03:07:41 16° ESE 03:10:15 10° ENE
Cosmos 1892 Rocket 3.8 03:04:48 10° S 03:09:13 70° E 03:13:41 10° NNE
Resurs 1-4 Rocket 3.8 03:06:05 10° NNW 03:09:41 19° WNW 03:13:01 11° WSW
SeaSat 1 4.4 03:06:31 10° NE 03:10:31 24° ESE 03:14:29 10° SSE
Cosmos 1703 4.2 03:11:07 19° SW 03:13:21 33° WNW 03:16:56 10° N
Cosmos 1726 Rocket 3.5 03:09:45 10° N 03:14:11 90° WNW 03:18:34 10° S
Cosmos 1943 Rocket 3.3 03:12:54 10° NW 03:17:18 24° WSW 03:20:53 13° SSW
NOSS 3-3 (A) 3.8 03:13:34 15° SW 03:18:14 85° NW 03:24:41 10° NE
Cosmos 2263 4.2 03:12:35 10° NNW 03:18:18 84° WSW 03:24:01 10° SSE
NOSS 3-3 (C) 3.8 03:13:40 15° SW 03:18:20 86° NW 03:24:46 10° NE
FENGYUN 3A 4.1 03:13:10 10° NNE 03:18:32 63° ESE 03:23:51 10° S
Cosmos 1023 Rocket 4.5 03:16:57 10° NNW 03:22:16 83° WSW 03:27:30 10° SSE
Cosmos 1825 4.3 03:21:04 10° SE 03:24:08 25° E 03:27:13 10° NE
SL-24 DEB 4.3 03:20:54 10° S 03:25:39 89° W 03:30:23 10° N
ADEOS II 3.4 03:21:27 10° N 03:25:40 25° WNW 03:29:36 11° WSW
GPS 2-04 Rocket1 4.3 03:24:12 12° SSW 03:25:57 17° SSE 03:28:19 10° ESE
IDEFIX/ARIANE 42P 3.7 03:22:03 10° N 03:26:33 29° WNW 03:30:40 12° WSW
Cosmos 1624 Rocket 4.4 03:22:24 10° S 03:27:40 66° ESE 03:32:56 10° NNE
ARIANE 5 R/B 3.3 03:23:49 10° NNE 03:28:45 51° E 03:33:37 10° S
CBERS-1 4.1 03:26:36 10° N 03:31:40 65° WNW 03:36:43 10° SSW
Cosmos 2218 Rocket 4.0 03:29:48 10° N 03:36:02 77° W 03:42:19 10° S
DNEPR-1 R/B 3.6 03:32:36 12° SW 03:36:26 69° NW 03:41:03 10° NNE
MOS 1-B Rocket 3.8 03:31:16 10° S 03:36:50 64° WSW 03:42:32 10° NNW
Cosmos 2056 Rocket 3.6 03:34:06 10° SSW 03:39:15 83° ESE 03:44:33 10° NNE
Cosmos 1892 2.8 03:36:38 10° S 03:40:25 81° E 03:44:11 10° N
Cosmos 2228 4.3 03:37:12 10° NW 03:40:37 23° W 03:44:01 10° SW
DEBRIS 3.8 03:33:30 10° WNW 03:41:51 63° NNE 03:44:43 10° E
DELTA 2 DEB (DPAF) 4.3 03:37:37 10° SSE 03:42:02 79° ENE 03:46:28 10° N
Cosmos 2369 Rocket 2.7 03:37:59 10° NW 03:43:06 38° WSW 03:48:12 10° S
IRS-1D 4.5 03:38:30 10° N 03:43:17 34° WNW 03:47:59 10° SW
SL-16 R/B 4.1 03:41:27 10° W 03:45:07 17° NW 03:48:47 10° N
OAO 2 Rocket 4.4 03:41:19 10° SW 03:45:31 28° S 03:49:42 10° ESE
Cosmos 2251 Rocket 4.3 03:42:30 10° NW 03:47:04 31° W 03:51:39 10° SSW
Cosmos 2058 Rocket 3.1 03:44:52 10° NNW 03:49:12 65° W 03:53:31 10° S
Cosmos 2181 Rocket 4.2 03:44:11 10° SSW 03:50:17 56° W 03:56:21 10° N
[s.n.52708] 2.7 03:48:16 10° SW 03:51:04 71° SE 03:53:53 10° ENE
[s.n.52707] 2.7 03:48:23 10° SW 03:51:11 71° SE 03:54:00 10° ENE
[s.n.52703] 2.7 03:48:30 10° SW 03:51:17 72° SE 03:54:06 10° ENE
[s.n.52705] 2.7 03:48:35 10° SW 03:51:24 72° SE 03:54:13 10° ENE
[s.n.52706] 2.7 03:48:42 10° SW 03:51:30 72° SE 03:54:20 10° ENE
[s.n.52701] 2.7 03:48:48 10° SW 03:51:37 72° SE 03:54:27 10° ENE
[s.n.52704] 2.7 03:48:55 10° SW 03:51:44 72° SE 03:54:33 10° ENE
[s.n.52699] 2.7 03:49:02 10° SW 03:51:51 73° SE 03:54:40 10° ENE
[s.n.52702] 2.7 03:49:09 10° SW 03:51:57 73° SE 03:54:47 10° ENE
[s.n.52697] 2.7 03:49:15 10° SW 03:52:04 73° SE 03:54:54 10° ENE
Cosmos 1656 Rocket 4.1 03:47:04 10° NW 03:52:04 39° WSW 03:57:03 10° S
[s.n.52700] 2.7 03:49:22 10° SW 03:52:11 73° SE 03:55:00 10° ENE
[s.n.52695] 2.7 03:49:29 10° SW 03:52:17 74° SE 03:55:07 10° ENE
[s.n.52698] 2.7 03:49:35 10° SW 03:52:23 74° SE 03:55:14 10° ENE
[s.n.52693] 2.7 03:49:42 10° SW 03:52:31 74° SE 03:55:21 10° ENE
[s.n.52696] 2.7 03:49:49 10° SW 03:52:37 74° SE 03:55:28 10° ENE
[s.n.52691] 2.7 03:49:55 10° SW 03:52:44 75° SE 03:55:34 10° ENE
[s.n.52689] 2.7 03:50:03 10° SW 03:52:51 75° SE 03:55:41 10° ENE
[s.n.52694] 2.7 03:50:09 10° SW 03:52:58 75° SE 03:55:48 10° ENE
IRS-P3 4.2 03:47:40 10° NNE 03:53:02 87° WNW 03:58:22 10° SSW
[s.n.52692] 2.7 03:50:16 10° SW 03:53:05 75° SE 03:55:55 10° ENE
[s.n.52687] 2.6 03:50:22 10° SW 03:53:11 75° SE 03:56:01 10° ENE
[s.n.52685] 2.7 03:50:29 10° SW 03:53:18 76° SE 03:56:08 10° ENE
[s.n.52690] 2.7 03:50:36 10° SW 03:53:25 76° SE 03:56:15 10° NE
Cosmos 1408 2.7 03:49:53 10° SSW 03:53:29 56° W 03:57:04 10° N
[s.n.52688] 2.7 03:50:42 10° SW 03:53:31 76° SE 03:56:21 10° NE
Cosmos 2098 4.1 03:50:29 10° NNW 03:53:32 67° W 03:56:30 10° S
[s.n.52683] 2.7 03:50:49 10° SW 03:53:39 76° SE 03:56:29 10° NE
[s.n.52686] 2.6 03:50:56 10° SW 03:53:45 77° SE 03:56:35 10° NE
[s.n.52681] 2.6 03:51:03 10° SW 03:53:53 77° SE 03:56:43 10° NE
[s.n.52679] 2.6 03:51:09 10° SW 03:53:59 77° SE 03:56:49 10° NE
COSMOS 2455 4.1 03:48:52 10° WSW 03:53:59 28° NW 03:59:09 10° NNE
[s.n.52684] 2.6 03:51:16 10° SW 03:54:06 77° SE 03:56:56 10° NE
[s.n.52682] 2.6 03:51:23 10° SW 03:54:12 77° SE 03:57:03 10° NE
[s.n.52677] 2.6 03:51:30 10° SW 03:54:20 78° SE 03:57:10 10° NE
Cosmos 1626 Rocket 3.9 03:50:01 10° S 03:54:23 71° E 03:58:46 10° NNE
[s.n.52680] 2.6 03:51:37 10° SW 03:54:27 78° SE 03:57:17 10° NE
[s.n.52675] 2.6 03:51:44 10° SW 03:54:33 78° SE 03:57:24 10° NE
Cosmos 1190 Rocket 4.0 03:49:21 10° NNW 03:54:38 71° WSW 03:59:53 10° S
[s.n.52678] 2.6 03:51:51 10° SW 03:54:41 78° SE 03:57:31 10° NE
Cosmos 1821 Rocket 4.4 03:50:25 10° N 03:56:51 76° E 04:03:14 10° SSE
